Location: Forshaga
(59.5328°N, 13.4805°E)
Time: 14:41:26
(UTC+01:00)

ISS - Pass Details

Date: 05 December 2021
Orbit: 413 x 422 km, 51.6° (Epoch: 18 January)

Event Time Altitude Azimuth Distance (km) Brightness Sun altitude
Rises 17:02:28 0° 262° (W) 2,387 1.8 -12.6°
Reaches altitude 10° 17:05:10 10° 239° (WSW) 1,517 0.5 -13.0°
Maximum altitude 17:07:16 16° 201° (SSW) 1,219 -0.8 -13.2°
Drops below altitude 10° 17:09:22 10° 162° (SSE) 1,511 -0.9 -13.5°
Enters shadow 17:12:16 -1° 138° (SE) 2,450 -0.1 -13.8°
